sat.trackr.live / text

‹ back to catalog

STARLINK-37634

NORAD 69028 · 2026-101D

PAYLOAD ACTIVE UNKNOWN

§ Identity

Operator
Country
US
Launch date
2026-05-06
Launch site
AFWTR
Launch vehicle
Mass (kg)
RCS (m²)

Purposes: comms

External: N2YO · Heavens-Above · Gunter

§ Orbital elements

Epoch: 2026-09-19T09:32:58.004448Z

Period
93.91 min
Inclination
97.2849°
Eccentricity
0.0001571
Mean motion
15.33442089 rev/d
Perigee alt
464.5 km
Apogee alt
466.6 km
Semi-major
6,843.7 km
B*
2.4510e-4
RAAN
115.9557°
Arg perigee
95.9805°
Mean anomaly
264.1617°
Rev number
2,101

§ Raw data

STARLINK-376341 69028U 26101D   26262.39789357  .00007845  00000+0  24510-3 0  99922 69028  97.2849 115.9557 0001571  95.9805 264.1617 15.33442089 21019

JSON: /api/v1/satellites/69028 · /tle

For live sub-satellite position, see the globe view (requires WebGL).

§ Visibility from observer

Set your observer location to see the next 7 days of passes ≥ 10°. The values pass through the URL so the page stays shareable.

No JS? Fill the form by hand. The geolocation button needs JavaScript.